PROBA-1

Last updated on July 6, 2021, 3:43 p.m. UTC

1 26958U 01049B   21187.14649077  .00000109  00000-0  14679-4 0  9992
2 26958  97.7713 143.5197 0073776  59.8309 301.0214 14.95715987 72703
UTC
Height (km)
Latitude
Longitude
Inclination
Orbital Period
UTC large
Height (km)
Speed (km/s)
/
Latitude / Longitude
Inclination (degrees)
Orbital Period (minutes)
Azimuth
Elevation
Range (km)
Doppler Factor
iOS Compass Heading
iOS Angle